{"data":{"norad_id":67633,"epoch":"2026-09-19T16:33:26.146080Z","epoch_age_seconds":138873,"freshness":"FRESH","line1":"1 67633U 26020S   26262.68988595  .00014300  00000+0  52796-3 0  9990","line2":"2 67633  43.0011 124.1471 0001620 262.4976  97.5692 15.27593368 35781","mean_motion":15.27593368,"eccentricity":0.000162,"inclination_deg":43.0011,"raan_deg":124.1471,"arg_perigee_deg":262.4976,"mean_anomaly_deg":97.5692,"bstar":0.00052796,"rev_number":3578,"period_min":94.265923783455,"perigee_km":481.89756206748,"apogee_km":484.12057339342,"semimajor_km":6861.1460677304,"source":"CELESTRAK","updated_at":"2026-09-20T09:00:43.614218Z"}}